THORAD AGENA D DEB, 4687

Orbit data source: Space-Track

THORAD AGENA D DEB, 4687 is space debris in SSO originally from a launch on Wed, 08 Apr 1970 UTC launched from the Air Force Western Test Range (AFWTR). Debris objects in space refer to the collection of defunct objects orbiting the Earth. Examples of debris include non-operational satellites, rocket bodies, and fragments generated from explosions, collisions, or faulty payload assembly.

Loading next visibility...
Identifier
4687, 1970-025BL
Orbit
SSO
Country
Flag of USUS
Related business
Manufacturer
Unknown
Mission
Spacecraft
Bus & Motor
Unknown
Mass
Unknown
Launch date (UTC)
1970-04-08 (56 years ago)
Launch vehicle
Unknown
Launch site
Air Force Western Test Range (AFWTR)
Object type
Payload
Rocket body
Debris
Shape & HBR
Unknown shape, 0.3 m
Radar Cross Section
Medium (>0.1 m² and <1 m²)

Expand to show TLE details & history
Last TLE update: 20 hours ago

TLE from 20 hours ago
0 THORAD AGENA D DEB
1 04687U 70025BL  25347.29763178  .00000223  00000-0  40813-3 0  9999
2 04687  99.5402 134.3610 0027713  32.6728  37.5230 13.51172531739178
Epoch: 2025-12-13T07:08Z
TLE epoch observation values (Epoch: 2025-12-13T07:08:35.385Z)
Latitude
68.35459°
Longitude
-79.93132°
Altitude
1,063.354 km
Speed
7.335 km/s
True Right ascension
07h 17m 46s
True Declination
68° 14' 29"
Sunlit
Object was in full shadow at epoch
Visualization orbit readout
Latitude
Unknown
Longitude
Unknown
Altitude
Unknown
Speed
Unknown
Apparent Right ascension
Unknown
Apparent Declination
Unknown
Sunlit
N/A
Visualization observer readout
Local Sidereal Time
01:28:45
Azimuth
Unknown
Elevation
Unknown
Doppler factor
Unknown
Orbital elements
Apogee altitude
1,085.867 km
Perigee altitude
1,044.611 km
Semi-major axis
7,443.376 km
Eccentricity
0.00277
Inclination
99.5402°
RAAN
134.361°
Arg. of periapsis
32.6728°
True anomaly
37.71696°
Mean anomaly
37.523°
Eccentric anomaly
37.61992°
Mean motion
3.37978 °/min
Orbital period
106.52 mins
BSTAR
0.00040813
Loading maneuver chart data...
Computing Atmospheric mass density...

Documentation

Showing up to 5 results
|